Year,Month,Day,Hour,Minute,Value (Times are PST for temperature in C)
2011,08,16,00,00,12.40
2011,08,16,00,01,12.40
2011,08,16,00,02,12.30
2011,08,16,00,03,12.30
2011,08,16,00,04,12.30
2011,08,16,00,05,12.30
2011,08,16,00,06,12.30
2011,08,16,00,07,12.30
2011,08,16,00,08,12.30
2011,08,16,00,09,12.30
2011,08,16,00,10,12.30
2011,08,16,00,11,12.30
2011,08,16,00,12,12.30
2011,08,16,00,13,12.30
2011,08,16,00,14,12.30
2011,08,16,00,15,12.30
2011,08,16,00,16,12.30
2011,08,16,00,17,12.30
2011,08,16,00,18,12.30
2011,08,16,00,19,12.30
2011,08,16,00,20,12.30
2011,08,16,00,21,12.30
2011,08,16,00,22,12.30
2011,08,16,00,23,12.30
2011,08,16,00,24,12.20
2011,08,16,00,25,12.20
2011,08,16,00,26,12.20
2011,08,16,00,27,12.20
2011,08,16,00,28,12.10
2011,08,16,00,29,12.10
2011,08,16,00,30,12.10
2011,08,16,00,31,12.00
2011,08,16,00,32,12.00
2011,08,16,00,33,12.00
2011,08,16,00,34,12.00
2011,08,16,00,35,11.90
2011,08,16,00,36,11.90
2011,08,16,00,37,11.90
2011,08,16,00,38,11.90
2011,08,16,00,39,11.90
2011,08,16,00,40,11.80
2011,08,16,00,41,11.80
2011,08,16,00,42,11.90
2011,08,16,00,43,11.90
2011,08,16,00,44,11.90
2011,08,16,00,45,11.90
2011,08,16,00,46,11.90
2011,08,16,00,47,11.90
2011,08,16,00,48,11.90
2011,08,16,00,49,11.90
2011,08,16,00,50,11.90
2011,08,16,00,51,11.90
2011,08,16,00,52,11.90
2011,08,16,00,53,11.90
2011,08,16,00,54,11.90
2011,08,16,00,55,11.90
2011,08,16,00,56,11.90
2011,08,16,00,57,11.90
2011,08,16,00,58,11.90
2011,08,16,00,59,11.80
2011,08,16,01,00,11.80
2011,08,16,01,01,11.80
2011,08,16,01,02,11.80
2011,08,16,01,03,11.80
2011,08,16,01,04,11.80
2011,08,16,01,05,11.80
2011,08,16,01,06,11.80
2011,08,16,01,07,11.70
2011,08,16,01,08,11.70
2011,08,16,01,09,11.70
2011,08,16,01,10,11.70
2011,08,16,01,11,11.80
2011,08,16,01,12,11.80
2011,08,16,01,13,11.70
2011,08,16,01,14,11.70
2011,08,16,01,15,11.70
2011,08,16,01,16,11.70
2011,08,16,01,17,11.70
2011,08,16,01,18,11.70
2011,08,16,01,19,11.70
2011,08,16,01,20,11.70
2011,08,16,01,21,11.70
2011,08,16,01,22,11.70
2011,08,16,01,23,11.70
2011,08,16,01,24,11.70
2011,08,16,01,25,11.70
2011,08,16,01,26,11.70
2011,08,16,01,27,11.70
2011,08,16,01,28,11.70
2011,08,16,01,29,11.70
2011,08,16,01,30,11.70
2011,08,16,01,31,11.70
2011,08,16,01,32,11.70
2011,08,16,01,33,11.70
2011,08,16,01,34,11.70
2011,08,16,01,35,11.70
2011,08,16,01,36,11.60
2011,08,16,01,37,11.60
2011,08,16,01,38,11.60
2011,08,16,01,39,11.60
2011,08,16,01,40,11.60
2011,08,16,01,41,11.60
2011,08,16,01,42,11.60
2011,08,16,01,43,11.60
2011,08,16,01,44,11.60
2011,08,16,01,45,11.60
2011,08,16,01,46,11.60
2011,08,16,01,47,11.60
2011,08,16,01,48,11.60
2011,08,16,01,49,11.60
2011,08,16,01,50,11.60
2011,08,16,01,51,11.60
2011,08,16,01,52,11.60
2011,08,16,01,53,11.60
2011,08,16,01,54,11.60
2011,08,16,01,55,11.60
2011,08,16,01,56,11.60
2011,08,16,01,57,11.60
2011,08,16,01,58,11.60
2011,08,16,01,59,11.60
2011,08,16,02,00,11.60
2011,08,16,02,01,11.60
2011,08,16,02,02,11.60
2011,08,16,02,03,11.60
2011,08,16,02,04,11.60
2011,08,16,02,05,11.60
2011,08,16,02,06,11.60
2011,08,16,02,07,11.60
2011,08,16,02,08,11.60
2011,08,16,02,09,11.60
2011,08,16,02,10,11.40
2011,08,16,02,11,11.40
2011,08,16,02,12,11.40
2011,08,16,02,13,11.40
2011,08,16,02,14,11.40
2011,08,16,02,15,11.40
2011,08,16,02,16,11.40
2011,08,16,02,17,11.40
2011,08,16,02,18,11.40
2011,08,16,02,19,11.40
2011,08,16,02,20,11.30
2011,08,16,02,21,11.30
2011,08,16,02,22,11.30
2011,08,16,02,23,11.30
2011,08,16,02,24,11.30
2011,08,16,02,25,11.30
2011,08,16,02,26,11.30
2011,08,16,02,27,11.30
2011,08,16,02,28,11.20
2011,08,16,02,29,11.20
2011,08,16,02,30,11.20
2011,08,16,02,31,11.20
2011,08,16,02,32,11.20
2011,08,16,02,33,11.20
2011,08,16,02,34,11.20
2011,08,16,02,35,11.20
2011,08,16,02,36,11.20
2011,08,16,02,37,11.20
2011,08,16,02,38,11.20
2011,08,16,02,39,11.10
2011,08,16,02,40,11.10
2011,08,16,02,41,11.10
2011,08,16,02,42,11.10
2011,08,16,02,43,11.10
2011,08,16,02,44,11.10
2011,08,16,02,45,11.10
2011,08,16,02,46,11.10
2011,08,16,02,47,11.00
2011,08,16,02,48,10.90
2011,08,16,02,49,10.90
2011,08,16,02,50,10.90
2011,08,16,02,51,10.90
2011,08,16,02,52,10.90
2011,08,16,02,53,10.90
2011,08,16,02,54,10.90
2011,08,16,02,55,10.90
2011,08,16,02,56,10.90
2011,08,16,02,57,10.90
2011,08,16,02,58,10.90
2011,08,16,02,59,10.90
2011,08,16,03,00,10.90
2011,08,16,03,01,10.80
2011,08,16,03,02,10.80
2011,08,16,03,03,10.80
2011,08,16,03,04,10.80
2011,08,16,03,05,10.70
2011,08,16,03,06,10.70
2011,08,16,03,07,10.70
2011,08,16,03,08,10.70
2011,08,16,03,09,10.70
2011,08,16,03,10,10.70
2011,08,16,03,11,10.60
2011,08,16,03,12,10.60
2011,08,16,03,13,10.60
2011,08,16,03,14,10.60
2011,08,16,03,15,10.60
2011,08,16,03,16,10.60
2011,08,16,03,17,10.50
2011,08,16,03,18,10.40
2011,08,16,03,19,10.40
2011,08,16,03,20,10.40
2011,08,16,03,21,10.40
2011,08,16,03,22,10.40
2011,08,16,03,23,10.30
2011,08,16,03,24,10.30
2011,08,16,03,25,10.30
2011,08,16,03,26,10.20
2011,08,16,03,27,10.20
2011,08,16,03,28,10.20
2011,08,16,03,29,10.10
2011,08,16,03,30,10.10
2011,08,16,03,31,10.10
2011,08,16,03,32,10.10
2011,08,16,03,33,10.10
2011,08,16,03,34,10.10
2011,08,16,03,35,10.10
2011,08,16,03,36,10.10
2011,08,16,03,37,10.10
2011,08,16,03,38,10.10
2011,08,16,03,39,10.10
2011,08,16,03,40,10.10
2011,08,16,03,41,10.10
2011,08,16,03,42,10.10
2011,08,16,03,43,10.10
2011,08,16,03,44,10.10
2011,08,16,03,45,10.10
2011,08,16,03,46,10.10
2011,08,16,03,47,10.00
2011,08,16,03,48,9.90
2011,08,16,03,49,9.90
2011,08,16,03,50,9.90
2011,08,16,03,51,9.90
2011,08,16,03,52,9.90
2011,08,16,03,53,9.90
2011,08,16,03,54,9.90
2011,08,16,03,55,9.90
2011,08,16,03,56,9.90
2011,08,16,03,57,9.80
2011,08,16,03,58,9.80
2011,08,16,03,59,9.80
2011,08,16,04,00,9.80
2011,08,16,04,01,9.70
2011,08,16,04,02,9.70
2011,08,16,04,03,9.70
2011,08,16,04,04,9.70
2011,08,16,04,05,9.70
2011,08,16,04,06,9.70
2011,08,16,04,07,9.70
2011,08,16,04,08,9.60
2011,08,16,04,09,9.60
2011,08,16,04,10,9.60
2011,08,16,04,11,9.60
2011,08,16,04,12,9.60
2011,08,16,04,13,9.50
2011,08,16,04,14,9.50
2011,08,16,04,15,9.50
2011,08,16,04,16,9.50
2011,08,16,04,17,9.40
2011,08,16,04,18,9.40
2011,08,16,04,19,9.40
2011,08,16,04,20,9.40
2011,08,16,04,21,9.40
2011,08,16,04,22,9.30
2011,08,16,04,23,9.30
2011,08,16,04,24,9.30
2011,08,16,04,25,9.30
2011,08,16,04,26,9.30
2011,08,16,04,27,9.30
2011,08,16,04,28,9.30
2011,08,16,04,29,9.30
2011,08,16,04,30,9.30
2011,08,16,04,31,9.20
2011,08,16,04,32,9.20
2011,08,16,04,33,9.20
2011,08,16,04,34,9.20
2011,08,16,04,35,9.20
2011,08,16,04,36,9.20
2011,08,16,04,37,9.20
2011,08,16,04,38,9.20
2011,08,16,04,39,9.20
2011,08,16,04,40,9.20
2011,08,16,04,41,9.20
2011,08,16,04,42,9.20
2011,08,16,04,43,9.20
2011,08,16,04,44,9.20
2011,08,16,04,45,9.20
2011,08,16,04,46,9.20
2011,08,16,04,47,9.20
2011,08,16,04,48,9.20
2011,08,16,04,49,9.20
2011,08,16,04,50,9.20
2011,08,16,04,51,9.20
2011,08,16,04,52,9.20
2011,08,16,04,53,9.20
2011,08,16,04,54,9.10
2011,08,16,04,55,9.10
2011,08,16,04,56,9.10
2011,08,16,04,57,9.10
2011,08,16,04,58,9.10
2011,08,16,04,59,9.10
2011,08,16,05,00,9.10
2011,08,16,05,01,9.10
2011,08,16,05,02,9.20
2011,08,16,05,03,9.20
2011,08,16,05,04,9.20
2011,08,16,05,05,9.20
2011,08,16,05,06,9.20
2011,08,16,05,07,9.20
2011,08,16,05,08,9.20
2011,08,16,05,09,9.30
2011,08,16,05,10,9.30
2011,08,16,05,11,9.30
2011,08,16,05,12,9.30
2011,08,16,05,13,9.30
2011,08,16,05,14,9.30
2011,08,16,05,15,9.30
2011,08,16,05,16,9.30
2011,08,16,05,17,9.30
2011,08,16,05,18,9.30
2011,08,16,05,19,9.20
2011,08,16,05,20,9.20
2011,08,16,05,21,9.20
2011,08,16,05,22,9.20
2011,08,16,05,23,9.30
2011,08,16,05,24,9.30
2011,08,16,05,25,9.40
2011,08,16,05,26,9.40
2011,08,16,05,27,9.40
2011,08,16,05,28,9.40
2011,08,16,05,29,9.50
2011,08,16,05,30,9.50
2011,08,16,05,31,9.50
2011,08,16,05,32,9.50
2011,08,16,05,33,9.50
2011,08,16,05,34,9.50
2011,08,16,05,35,9.50
2011,08,16,05,36,9.40
2011,08,16,05,37,9.40
2011,08,16,05,38,9.30
2011,08,16,05,39,9.30
2011,08,16,05,40,9.20
2011,08,16,05,41,9.20
2011,08,16,05,42,9.20
2011,08,16,05,43,9.10
2011,08,16,05,44,9.10
2011,08,16,05,45,9.00
2011,08,16,05,46,9.00
2011,08,16,05,47,9.00
2011,08,16,05,48,8.90
2011,08,16,05,49,8.90
2011,08,16,05,50,8.90
2011,08,16,05,51,8.90
2011,08,16,05,52,8.90
2011,08,16,05,53,8.90
2011,08,16,05,54,8.90
2011,08,16,05,55,8.90
2011,08,16,05,56,8.90
2011,08,16,05,57,8.90
2011,08,16,05,58,8.90
2011,08,16,05,59,8.90
2011,08,16,06,00,8.90
2011,08,16,06,01,8.90
2011,08,16,06,02,8.90
2011,08,16,06,03,8.80
2011,08,16,06,04,8.80
2011,08,16,06,05,8.70
2011,08,16,06,06,8.70
2011,08,16,06,07,8.70
2011,08,16,06,08,8.60
2011,08,16,06,09,8.60
2011,08,16,06,10,8.60
2011,08,16,06,11,8.50
2011,08,16,06,12,8.50
2011,08,16,06,13,8.50
2011,08,16,06,14,8.50
2011,08,16,06,15,8.50
2011,08,16,06,16,8.50
2011,08,16,06,17,8.50
2011,08,16,06,18,8.50
2011,08,16,06,19,8.40
2011,08,16,06,20,8.40
2011,08,16,06,21,8.40
2011,08,16,06,22,8.40
2011,08,16,06,23,8.50
2011,08,16,06,24,8.50
2011,08,16,06,25,8.50
2011,08,16,06,26,8.50
2011,08,16,06,27,8.50
2011,08,16,06,28,8.50
2011,08,16,06,29,8.50
2011,08,16,06,30,8.50
2011,08,16,06,31,8.40
2011,08,16,06,32,8.40
2011,08,16,06,33,8.40
2011,08,16,06,34,8.40
2011,08,16,06,35,8.40
2011,08,16,06,36,8.40
2011,08,16,06,37,8.40
2011,08,16,06,38,8.40
2011,08,16,06,39,8.40
2011,08,16,06,40,8.50
2011,08,16,06,41,8.50
2011,08,16,06,42,8.50
2011,08,16,06,43,8.50
2011,08,16,06,44,8.50
2011,08,16,06,45,8.50
2011,08,16,06,46,8.50
2011,08,16,06,47,8.50
2011,08,16,06,48,8.50
2011,08,16,06,49,8.50
2011,08,16,06,50,8.50
2011,08,16,06,51,8.60
2011,08,16,06,52,8.60
2011,08,16,06,53,8.60
2011,08,16,06,54,8.70
2011,08,16,06,55,8.70
2011,08,16,06,56,8.70
2011,08,16,06,57,8.70
2011,08,16,06,58,8.80
2011,08,16,06,59,8.90
2011,08,16,07,00,8.90
2011,08,16,07,01,9.00
2011,08,16,07,02,9.00
2011,08,16,07,03,9.10
2011,08,16,07,04,9.10
2011,08,16,07,05,9.20
2011,08,16,07,06,9.20
2011,08,16,07,07,9.30
2011,08,16,07,08,9.30
2011,08,16,07,09,9.40
2011,08,16,07,10,9.50
2011,08,16,07,11,9.60
2011,08,16,07,12,9.70
2011,08,16,07,13,9.70
2011,08,16,07,14,9.80
2011,08,16,07,15,9.90
2011,08,16,07,16,10.00
2011,08,16,07,17,10.10
2011,08,16,07,18,10.20
2011,08,16,07,19,10.30
2011,08,16,07,20,10.30
2011,08,16,07,21,10.40
2011,08,16,07,22,10.40
2011,08,16,07,23,10.50
2011,08,16,07,24,10.60
2011,08,16,07,25,10.60
2011,08,16,07,26,10.60
2011,08,16,07,27,10.70
2011,08,16,07,28,10.80
2011,08,16,07,29,10.90
2011,08,16,07,30,11.10
2011,08,16,07,31,11.10
2011,08,16,07,32,11.20
2011,08,16,07,33,11.20
2011,08,16,07,34,11.30
2011,08,16,07,35,11.40
2011,08,16,07,36,11.40
2011,08,16,07,37,11.40
2011,08,16,07,38,11.50
2011,08,16,07,39,11.60
2011,08,16,07,40,11.60
2011,08,16,07,41,11.60
2011,08,16,07,42,11.70
2011,08,16,07,43,11.70
2011,08,16,07,44,11.80
2011,08,16,07,45,11.90
2011,08,16,07,46,12.00
2011,08,16,07,47,12.10
2011,08,16,07,48,12.20
2011,08,16,07,49,12.30
2011,08,16,07,50,12.50
2011,08,16,07,51,12.50
2011,08,16,07,52,12.70
2011,08,16,07,53,12.80
2011,08,16,07,54,12.80
2011,08,16,07,55,12.90
2011,08,16,07,56,12.90
2011,08,16,07,57,13.00
2011,08,16,07,58,13.10
2011,08,16,07,59,13.10
2011,08,16,08,00,13.20
2011,08,16,08,01,13.30
2011,08,16,08,02,13.30
2011,08,16,08,03,13.30
2011,08,16,08,04,13.30
2011,08,16,08,05,13.30
2011,08,16,08,06,13.30
2011,08,16,08,07,13.40
2011,08,16,08,08,13.40
2011,08,16,08,09,13.50
2011,08,16,08,10,13.60
2011,08,16,08,11,13.60
2011,08,16,08,12,13.70
2011,08,16,08,13,13.70
2011,08,16,08,14,13.80
2011,08,16,08,15,13.80
2011,08,16,08,16,13.90
2011,08,16,08,17,14.00
2011,08,16,08,18,14.00
2011,08,16,08,19,14.10
2011,08,16,08,20,14.10
2011,08,16,08,21,14.20
2011,08,16,08,22,14.20
2011,08,16,08,23,14.30
2011,08,16,08,24,14.30
2011,08,16,08,25,14.30
2011,08,16,08,26,14.30
2011,08,16,08,27,14.30
2011,08,16,08,28,14.30
2011,08,16,08,29,14.30
2011,08,16,08,30,14.30
2011,08,16,08,31,14.40
2011,08,16,08,32,14.40
2011,08,16,08,33,14.30
2011,08,16,08,34,14.40
2011,08,16,08,35,14.40
2011,08,16,08,36,14.30
2011,08,16,08,37,14.40
2011,08,16,08,38,14.40
2011,08,16,08,39,14.20
2011,08,16,08,40,13.90
2011,08,16,08,41,13.80
2011,08,16,08,42,13.70
2011,08,16,08,43,13.70
2011,08,16,08,44,13.70
2011,08,16,08,45,13.70
2011,08,16,08,46,13.60
2011,08,16,08,47,13.60
2011,08,16,08,48,13.50
2011,08,16,08,49,13.40
2011,08,16,08,50,13.20
2011,08,16,08,51,13.10
2011,08,16,08,52,13.00
2011,08,16,08,53,12.90
2011,08,16,08,54,12.90
2011,08,16,08,55,12.90
2011,08,16,08,56,12.90
2011,08,16,08,57,13.00
2011,08,16,08,58,13.00
2011,08,16,08,59,12.90
2011,08,16,09,00,12.90
2011,08,16,09,01,12.90
2011,08,16,09,02,12.90
2011,08,16,09,03,12.80
2011,08,16,09,04,12.80
2011,08,16,09,05,12.80
2011,08,16,09,06,12.80
2011,08,16,09,07,12.70
2011,08,16,09,08,12.60
2011,08,16,09,09,12.60
2011,08,16,09,10,12.50
2011,08,16,09,11,12.50
2011,08,16,09,12,12.60
2011,08,16,09,13,12.50
2011,08,16,09,14,12.50
2011,08,16,09,15,12.40
2011,08,16,09,16,12.30
2011,08,16,09,17,12.30
2011,08,16,09,18,12.30
2011,08,16,09,19,12.40
2011,08,16,09,20,12.50
2011,08,16,09,21,12.50
2011,08,16,09,22,12.50
2011,08,16,09,23,12.60
2011,08,16,09,24,12.70
2011,08,16,09,25,12.70
2011,08,16,09,26,12.70
2011,08,16,09,27,12.70
2011,08,16,09,28,12.80
2011,08,16,09,29,12.70
2011,08,16,09,30,12.80
2011,08,16,09,31,12.70
2011,08,16,09,32,12.70
2011,08,16,09,33,12.60
2011,08,16,09,34,12.50
2011,08,16,09,35,12.40
2011,08,16,09,36,12.30
2011,08,16,09,37,12.10
2011,08,16,09,38,12.10
2011,08,16,09,39,12.10
2011,08,16,09,40,12.20
2011,08,16,09,41,12.20
2011,08,16,09,42,12.20
2011,08,16,09,43,12.20
2011,08,16,09,44,12.30
2011,08,16,09,45,12.40
2011,08,16,09,46,12.50
2011,08,16,09,47,12.60
2011,08,16,09,48,12.60
2011,08,16,09,49,12.60
2011,08,16,09,50,12.70
2011,08,16,09,51,12.80
2011,08,16,09,52,12.80
2011,08,16,09,53,12.80
2011,08,16,09,54,12.80
2011,08,16,09,55,12.60
2011,08,16,09,56,12.40
2011,08,16,09,57,12.30
2011,08,16,09,58,12.20
2011,08,16,09,59,12.30
2011,08,16,10,00,12.40
2011,08,16,10,01,12.50
2011,08,16,10,02,12.70
2011,08,16,10,03,12.80
2011,08,16,10,04,12.90
2011,08,16,10,05,12.90
2011,08,16,10,06,12.90
2011,08,16,10,07,13.00
2011,08,16,10,08,12.90
2011,08,16,10,09,12.80
2011,08,16,10,10,12.70
2011,08,16,10,11,12.70
2011,08,16,10,12,12.70
2011,08,16,10,13,12.70
2011,08,16,10,14,12.80
2011,08,16,10,15,12.90
2011,08,16,10,16,12.90
2011,08,16,10,17,12.80
2011,08,16,10,18,12.70
2011,08,16,10,19,12.80
2011,08,16,10,20,12.80
2011,08,16,10,21,12.90
2011,08,16,10,22,13.00
2011,08,16,10,23,13.00
2011,08,16,10,24,13.00
2011,08,16,10,25,13.10
2011,08,16,10,26,13.00
2011,08,16,10,27,13.10
2011,08,16,10,28,13.30
2011,08,16,10,29,13.40
2011,08,16,10,30,13.40
2011,08,16,10,31,13.40
2011,08,16,10,32,13.40
2011,08,16,10,33,13.40
2011,08,16,10,34,13.60
2011,08,16,10,35,13.70
2011,08,16,10,36,13.70
2011,08,16,10,37,13.70
2011,08,16,10,38,13.80
2011,08,16,10,39,13.90
2011,08,16,10,40,14.00
2011,08,16,10,41,14.00
2011,08,16,10,42,14.00
2011,08,16,10,43,13.80
2011,08,16,10,44,13.60
2011,08,16,10,45,13.50
2011,08,16,10,46,13.40
2011,08,16,10,47,13.30
2011,08,16,10,48,13.40
2011,08,16,10,49,13.50
2011,08,16,10,50,13.50
2011,08,16,10,51,13.60
2011,08,16,10,52,13.70
2011,08,16,10,53,13.70
2011,08,16,10,54,13.90
2011,08,16,10,55,14.00
2011,08,16,10,56,14.10
2011,08,16,10,57,14.10
2011,08,16,10,58,13.90
2011,08,16,10,59,13.70
2011,08,16,11,00,13.60
2011,08,16,11,01,13.40
2011,08,16,11,02,13.20
2011,08,16,11,03,13.00
2011,08,16,11,04,12.90
2011,08,16,11,05,12.90
2011,08,16,11,06,12.90
2011,08,16,11,07,12.80
2011,08,16,11,08,12.80
2011,08,16,11,09,12.80
2011,08,16,11,10,12.80
2011,08,16,11,11,12.70
2011,08,16,11,12,12.80
2011,08,16,11,13,12.90
2011,08,16,11,14,12.90
2011,08,16,11,15,13.00
2011,08,16,11,16,13.00
2011,08,16,11,17,13.00
2011,08,16,11,18,13.00
2011,08,16,11,19,13.10
2011,08,16,11,20,13.00
2011,08,16,11,21,12.90
2011,08,16,11,22,12.80
2011,08,16,11,23,12.80
2011,08,16,11,24,12.90
2011,08,16,11,25,13.10
2011,08,16,11,26,13.20
2011,08,16,11,27,13.30
2011,08,16,11,28,13.30
2011,08,16,11,29,13.30
2011,08,16,11,30,13.30
2011,08,16,11,31,13.30
2011,08,16,11,32,13.20
2011,08,16,11,33,13.20
2011,08,16,11,34,13.20
2011,08,16,11,35,13.20
2011,08,16,11,36,13.20
2011,08,16,11,37,13.20
2011,08,16,11,38,13.20
2011,08,16,11,39,13.20
2011,08,16,11,40,13.10
2011,08,16,11,41,13.10
2011,08,16,11,42,13.20
2011,08,16,11,43,13.40
2011,08,16,11,44,13.50
2011,08,16,11,45,13.60
2011,08,16,11,46,13.60
2011,08,16,11,47,13.60
2011,08,16,11,48,13.70
2011,08,16,11,49,13.70
2011,08,16,11,50,13.70
2011,08,16,11,51,13.70
2011,08,16,11,52,13.70
2011,08,16,11,53,13.70
2011,08,16,11,54,13.70
2011,08,16,11,55,13.70
2011,08,16,11,56,13.60
2011,08,16,11,57,13.50
2011,08,16,11,58,13.40
2011,08,16,11,59,13.50
2011,08,16,12,00,13.50
2011,08,16,12,01,13.50
2011,08,16,12,02,13.40
2011,08,16,12,03,13.50
2011,08,16,12,04,13.50
2011,08,16,12,05,13.50
2011,08,16,12,06,13.60
2011,08,16,12,07,13.70
2011,08,16,12,08,13.70
2011,08,16,12,09,13.60
2011,08,16,12,10,13.60
2011,08,16,12,11,13.60
2011,08,16,12,12,13.60
2011,08,16,12,13,13.70
2011,08,16,12,14,13.80
2011,08,16,12,15,13.90
2011,08,16,12,16,14.00
2011,08,16,12,17,14.10
2011,08,16,12,18,14.10
2011,08,16,12,19,14.10
2011,08,16,12,20,14.10
2011,08,16,12,21,14.10
2011,08,16,12,22,14.10
2011,08,16,12,23,14.10
2011,08,16,12,24,14.20
2011,08,16,12,25,14.40
2011,08,16,12,26,14.50
2011,08,16,12,27,14.70
2011,08,16,12,28,14.80
2011,08,16,12,29,14.80
2011,08,16,12,30,14.80
2011,08,16,12,31,14.70
2011,08,16,12,32,14.70
2011,08,16,12,33,14.60
2011,08,16,12,34,14.60
2011,08,16,12,35,14.50
2011,08,16,12,36,14.50
2011,08,16,12,37,14.60
2011,08,16,12,38,14.60
2011,08,16,12,39,14.70
2011,08,16,12,40,14.70
2011,08,16,12,41,14.70
2011,08,16,12,42,14.70
2011,08,16,12,43,14.80
2011,08,16,12,44,14.80
2011,08,16,12,45,14.90
2011,08,16,12,46,15.00
2011,08,16,12,47,15.00
2011,08,16,12,48,14.90
2011,08,16,12,49,15.00
2011,08,16,12,50,15.10
2011,08,16,12,51,15.10
2011,08,16,12,52,15.20
2011,08,16,12,53,15.20
2011,08,16,12,54,15.20
2011,08,16,12,55,15.30
2011,08,16,12,56,15.20
2011,08,16,12,57,15.30
2011,08,16,12,58,15.30
2011,08,16,12,59,15.20
2011,08,16,13,00,15.30
2011,08,16,13,01,15.30
2011,08,16,13,02,15.30
2011,08,16,13,03,15.30
2011,08,16,13,04,15.30
2011,08,16,13,05,15.30
2011,08,16,13,06,15.30
2011,08,16,13,07,15.30
2011,08,16,13,08,15.30
2011,08,16,13,09,15.30
2011,08,16,13,10,15.40
2011,08,16,13,11,15.40
2011,08,16,13,12,15.40
2011,08,16,13,13,15.40
2011,08,16,13,14,15.50
2011,08,16,13,15,15.50
2011,08,16,13,16,15.60
2011,08,16,13,17,15.70
2011,08,16,13,18,15.70
2011,08,16,13,19,15.70
2011,08,16,13,20,15.70
2011,08,16,13,21,15.60
2011,08,16,13,22,15.60
2011,08,16,13,23,15.80
2011,08,16,13,24,15.90
2011,08,16,13,25,15.80
2011,08,16,13,26,15.80
2011,08,16,13,27,15.80
2011,08,16,13,28,15.70
2011,08,16,13,29,15.70
2011,08,16,13,30,15.80
2011,08,16,13,31,15.90
2011,08,16,13,32,15.90
2011,08,16,13,33,16.00
2011,08,16,13,34,16.00
2011,08,16,13,35,15.90
2011,08,16,13,36,16.00
2011,08,16,13,37,16.10
2011,08,16,13,38,16.10
2011,08,16,13,39,16.10
2011,08,16,13,40,16.00
2011,08,16,13,41,15.90
2011,08,16,13,42,16.00
2011,08,16,13,43,16.10
2011,08,16,13,44,16.10
2011,08,16,13,45,16.20
2011,08,16,13,46,16.30
2011,08,16,13,47,16.40
2011,08,16,13,48,16.40
2011,08,16,13,49,16.40
2011,08,16,13,50,16.40
2011,08,16,13,51,16.40
2011,08,16,13,52,16.40
2011,08,16,13,53,16.50
2011,08,16,13,54,16.60
2011,08,16,13,55,16.70
2011,08,16,13,56,16.70
2011,08,16,13,57,16.70
2011,08,16,13,58,16.70
2011,08,16,13,59,16.90
2011,08,16,14,00,16.90
2011,08,16,14,01,17.00
2011,08,16,14,02,17.00
2011,08,16,14,03,17.00
2011,08,16,14,04,17.00
2011,08,16,14,05,16.90
2011,08,16,14,06,16.90
2011,08,16,14,07,16.90
2011,08,16,14,08,17.10
2011,08,16,14,09,17.20
2011,08,16,14,10,17.30
2011,08,16,14,11,17.40
2011,08,16,14,12,17.50
2011,08,16,14,13,17.50
2011,08,16,14,14,17.40
2011,08,16,14,15,17.30
2011,08,16,14,16,17.10
2011,08,16,14,17,17.00
2011,08,16,14,18,16.90
2011,08,16,14,19,17.00
2011,08,16,14,20,17.00
2011,08,16,14,21,16.90
2011,08,16,14,22,16.90
2011,08,16,14,23,17.00
2011,08,16,14,24,17.10
2011,08,16,14,25,17.20
2011,08,16,14,26,17.30
2011,08,16,14,27,17.30
2011,08,16,14,28,17.40
2011,08,16,14,29,17.40
2011,08,16,14,30,17.40
2011,08,16,14,31,17.40
2011,08,16,14,32,17.50
2011,08,16,14,33,17.50
2011,08,16,14,34,17.40
2011,08,16,14,35,17.40
2011,08,16,14,36,17.50
2011,08,16,14,37,17.70
2011,08,16,14,38,17.90
2011,08,16,14,39,17.90
2011,08,16,14,40,17.90
2011,08,16,14,41,17.90
2011,08,16,14,42,17.80
2011,08,16,14,43,17.80
2011,08,16,14,44,17.70
2011,08,16,14,45,17.50
2011,08,16,14,46,17.40
2011,08,16,14,47,17.30
2011,08,16,14,48,17.30
2011,08,16,14,49,17.20
2011,08,16,14,50,17.30
2011,08,16,14,51,17.30
2011,08,16,14,52,17.50
2011,08,16,14,53,17.60
2011,08,16,14,54,17.60
2011,08,16,14,55,17.70
2011,08,16,14,56,17.80
2011,08,16,14,57,17.90
2011,08,16,14,58,17.90
2011,08,16,14,59,17.90
2011,08,16,15,00,17.90
2011,08,16,15,01,17.90
2011,08,16,15,02,17.80
2011,08,16,15,03,17.80
2011,08,16,15,04,17.90
2011,08,16,15,05,18.00
2011,08,16,15,06,18.10
2011,08,16,15,07,18.10
2011,08,16,15,08,18.10
2011,08,16,15,09,18.10
2011,08,16,15,10,18.00
2011,08,16,15,11,17.90
2011,08,16,15,12,17.80
2011,08,16,15,13,17.70
2011,08,16,15,14,17.60
2011,08,16,15,15,17.70
2011,08,16,15,16,17.70
2011,08,16,15,17,17.70
2011,08,16,15,18,17.70
2011,08,16,15,19,17.70
2011,08,16,15,20,17.80
2011,08,16,15,21,17.90
2011,08,16,15,22,17.90
2011,08,16,15,23,17.90
2011,08,16,15,24,17.90
2011,08,16,15,25,17.90
2011,08,16,15,26,17.90
2011,08,16,15,27,17.90
2011,08,16,15,28,17.80
2011,08,16,15,29,17.80
2011,08,16,15,30,17.90
2011,08,16,15,31,17.90
2011,08,16,15,32,18.00
2011,08,16,15,33,18.10
2011,08,16,15,34,18.20
2011,08,16,15,35,18.20
2011,08,16,15,36,18.30
2011,08,16,15,37,18.40
2011,08,16,15,38,18.50
2011,08,16,15,39,18.60
2011,08,16,15,40,18.60
2011,08,16,15,41,18.60
2011,08,16,15,42,18.60
2011,08,16,15,43,18.50
2011,08,16,15,44,18.40
2011,08,16,15,45,18.50
2011,08,16,15,46,18.60
2011,08,16,15,47,18.60
2011,08,16,15,48,18.50
2011,08,16,15,49,18.40
2011,08,16,15,50,18.40
2011,08,16,15,51,18.30
2011,08,16,15,52,18.30
2011,08,16,15,53,18.30
2011,08,16,15,54,18.20
2011,08,16,15,55,18.10
2011,08,16,15,56,18.00
2011,08,16,15,57,17.90
2011,08,16,15,58,17.90
2011,08,16,15,59,17.80
2011,08,16,16,00,17.80
2011,08,16,16,01,17.80
2011,08,16,16,02,17.70
2011,08,16,16,03,17.70
2011,08,16,16,04,17.70
2011,08,16,16,05,17.80
2011,08,16,16,06,17.90
2011,08,16,16,07,17.90
2011,08,16,16,08,17.90
2011,08,16,16,09,17.80
2011,08,16,16,10,17.80
2011,08,16,16,11,17.80
2011,08,16,16,12,17.80
2011,08,16,16,13,17.80
2011,08,16,16,14,17.70
2011,08,16,16,15,17.70
2011,08,16,16,16,17.70
2011,08,16,16,17,17.70
2011,08,16,16,18,17.70
2011,08,16,16,19,17.70
2011,08,16,16,20,17.80
2011,08,16,16,21,17.90
2011,08,16,16,22,17.90
2011,08,16,16,23,17.90
2011,08,16,16,24,18.10
2011,08,16,16,25,18.10
2011,08,16,16,26,18.00
2011,08,16,16,27,17.90
2011,08,16,16,28,17.90
2011,08,16,16,29,17.70
2011,08,16,16,30,17.70
2011,08,16,16,31,17.80
2011,08,16,16,32,17.70
2011,08,16,16,33,17.80
2011,08,16,16,34,17.80
2011,08,16,16,35,17.80
2011,08,16,16,36,17.70
2011,08,16,16,37,17.70
2011,08,16,16,38,17.50
2011,08,16,16,39,17.40
2011,08,16,16,40,17.20
2011,08,16,16,41,17.10
2011,08,16,16,42,17.10
2011,08,16,16,43,17.00
2011,08,16,16,44,17.00
2011,08,16,16,45,17.00
2011,08,16,16,46,17.00
2011,08,16,16,47,17.00
2011,08,16,16,48,17.00
2011,08,16,16,49,17.00
2011,08,16,16,50,17.00
2011,08,16,16,51,17.00
2011,08,16,16,52,17.00
2011,08,16,16,53,17.10
2011,08,16,16,54,17.10
2011,08,16,16,55,17.20
2011,08,16,16,56,17.20
2011,08,16,16,57,17.20
2011,08,16,16,58,17.30
2011,08,16,16,59,17.30
2011,08,16,17,00,17.30
2011,08,16,17,01,17.30
2011,08,16,17,02,17.30
2011,08,16,17,03,17.40
2011,08,16,17,04,17.40
2011,08,16,17,05,17.40
2011,08,16,17,06,17.40
2011,08,16,17,07,17.30
2011,08,16,17,08,17.40
2011,08,16,17,09,17.40
2011,08,16,17,10,17.40
2011,08,16,17,11,17.50
2011,08,16,17,12,17.50
2011,08,16,17,13,17.40
2011,08,16,17,14,17.30
2011,08,16,17,15,17.30
2011,08,16,17,16,17.30
2011,08,16,17,17,17.30
2011,08,16,17,18,17.40
2011,08,16,17,19,17.40
2011,08,16,17,20,17.50
2011,08,16,17,21,17.60
2011,08,16,17,22,17.70
2011,08,16,17,23,17.70
2011,08,16,17,24,17.80
2011,08,16,17,25,17.80
2011,08,16,17,26,17.80
2011,08,16,17,27,17.70
2011,08,16,17,28,17.70